Weather in Vladimirskaya

Russia / Saint-Petersburg and Leningrad Oblast     59°34′23″N   30°21′39″E
temp.,
°C
wind,
m/s
gust,
m/s
humid.,
%
clouds,
%
prec.,
mm/h
press.,
hPa
HPBL,
m
20 june, sun
sun2000:00+19sw25692 0.0 101998
03:00+17ssw26750 0.0 1019110
06:00+19ssw38710 0.0 1018204
09:00+26sw36503 0.0 1018625
12:00+30sw46360 0.0 10172104
15:00+31wsw46305 0.0 10162458
18:00+30wsw45300 0.0 10162406
21:00+24sw22590 0.0 101631
21 june, mon
mon2100:00+21ssw25670 0.0 101680
03:00+19ssw25760 0.0 101782
06:00+21ssw27760 0.0 1017174
09:00+28s36530 0.0 1017661
12:00+32s463541 0.0 10162417
15:00+33ssw562974 0.0 10153365
18:00+32s45335 0.0 10142559
21:00+28s395161 0.0 1015375
22 june, tue
tue2200:00+20wsw118884 1.9 101711
03:00+19s26945 2.1 1017102
06:00+20sse26925 0.0 1016149
09:00+27sse36535 0.0 1016511
12:00+31sse57355 0.0 10151488
15:00+32sse693366 0.0 10142064
18:00+32s5838100 0.0 10142436
21:00+26ssw396242 0.0 1014465
23 june, wed
wed2300:00+23s3978100 0.0 1014221
03:00+21ssw2109384 0.8 1015242
06:00+21s2890100 0.0 1016222
09:00+28ssw36585 0.0 1016859
12:00+32sw48418 0.0 10162388
15:00+31wsw4741100 0.0 10161588
18:00+31wsw474335 0.0 10161590
21:00+21nnw23943 2.7 1017103
24 june, thu
thu2400:00+19ene119749 1.4 101811
03:00+18nw229856 1.7 101839
06:00+19nw009346 0.0 101859
09:00+24n117426 0.0 1017520
12:00+31nne134812 0.0 10161553
15:00+29n2355100 0.2 1015303
18:00+20ene2595100 5.8 1015234
21:00+20sse2497100 8.1 1015233